Miscellaneous Local Product
Issued by NWS Hastings, NE

Home | Current Version | Previous Version | Graphics & Text | Print | Product List | Glossary On
Versions: 1 2 3 4 5 6 7 8 9 10 11 12 13 14 15 16 17 18 19 20 21 22 23 24 25 26 27 28 29 30 31 32 33 34 35 36 37 38 39 40 41 42 43 44 45 46 47 48 49 50
390
AXUS43 KGID 241502
MISGRI

GID CWA HOURLY WEATHER ROUNDUP
NATIONAL WEATHER SERVICE HASTINGS NE
1000 AM CDT FRI MAR 24 2017

NOTE: "FAIR" INDICATES FEW OR NO CLOUDS BELOW 12,000 FEET WITH NO
SIGNIFICANT WEATHER AND/OR OBSTRUCTIONS TO VISIBILITY.

...SOUTH CENTRAL NEBRASKA...

CITY           SKY/WX    TMP DP  RH WIND       PRES   REMARKS
GRAND ISLAND   LGT RAIN  42  42 100 N16       29.89R FOG
HASTINGS       CLOUDY    45  41  86 N23G32    29.86R
KEARNEY        CLOUDY    43  37  81 N20G29    29.89R
ORD            CLOUDY    40  36  86 N17G29    29.93R WCI  31
YORK           CLOUDY    45  45 100 N25G31    29.86R FOG
AURORA         CLOUDY    44  42  95 N25       29.86S FOG
LEXINGTON      LGT RAIN  40  38  89 N20G26    29.90R WCI  31
HOLDREGE       CLOUDY    43  40  91 N28G33    29.86R
HEBRON         CLOUDY    53  51  93 N18       29.82R FOG

...NEBRASKA PANHANDLE...

CITY           SKY/WX    TMP DP  RH WIND       PRES   REMARKS
CHADRON        CLOUDY    44  37  76 N7        30.12R
ALLIANCE       NOT AVBL
SCOTTSBLUFF    CLOUDY    44  35  70 N14       30.09R
SIDNEY         CLOUDY    39  36  89 N26G37    29.99R WCI  28

...WESTERN AND NORTH CENTRAL NEBRASKA...

CITY           SKY/WX    TMP DP  RH WIND       PRES   REMARKS
VALENTINE      CLOUDY    42  35  76 N14G22    30.05R
AINSWORTH      CLOUDY    39  38  99 N20       30.01S WCI  29
ONEILL         CLOUDY    38  38  97 N18G25    29.99R FOG     WCI  29
BROKEN BOW     CLOUDY    41  37  86 N22G33    29.93R
IMPERIAL       CLOUDY    42  39  89 NE30G38   29.89R
NORTH PLATTE   LGT RAIN  42  38  85 N29G39    29.88F FOG
MCCOOK         CLOUDY    43  40  89 N30G46    29.81R

...EASTERN NEBRASKA...

CITY           SKY/WX    TMP DP  RH WIND       PRES   REMARKS
NORFOLK        CLOUDY    40  38  93 N17       29.93R FOG     WCI  31
SO SIOUX CITY  CLOUDY    42  40  92 N16       29.93R
TEKAMAH        LGT RAIN  44  42  93 N20       29.89R
COLUMBUS       CLOUDY    43  39  87 N16G23    29.90R
ALBION         DRIZZLE   41  38  90 N16G23    29.92R
OMAHA EPPLEY   LGT RAIN  49  45  86 N14       29.86R FOG
OFFUTT AFB     RAIN      50  48  92 N12G17    29.85R
MILLARD        LGT RAIN  51  48  91 N10       29.87R
LINCOLN        CLOUDY    50  47  89 N20       29.87R
NEBRASKA CITY  CLOUDY    57  52  82 SW5       29.82R
BEATRICE       CLOUDY    59  56  91 NE13      29.80R
FALLS CITY     LGT RAIN  59  53  80 S7        29.84R

...NORTHERN KANSAS...

CITY           SKY/WX    TMP DP  RH WIND       PRES   REMARKS
GOODLAND       RAIN      41  40  96 N32G48    29.77R FOG
HILL CITY      PTSUNNY   53  52  96 NE24G33   29.76R
NORTON         CLOUDY    45  39  81 N20G29    29.80R
PHILLIPSBURG   CLOUDY    48  48 100 N21G31    29.79R
HAYS             N/A     62  43  49 S9        29.71R
RUSSELL        PTSUNNY   62  37  39 SW24G31   29.71R
CONCORDIA      CLOUDY    67  46  47 S8        29.75R
SALINA         PTSUNNY   69  49  48 S25G36    29.71R
TOPEKA         LGT RAIN  64  51  62 S5        29.81R



USA.gov is the U.S. government's official web portal to all federal, state and local government web resources and services.